Location: La Tine
(46.4708°N, 7.0525°E)
Time: 08:38:09
(UTC+00:00)

Cosmos 1833 Rocket - Pass Details

Date: 22 January 2021
Orbit: 833 x 839 km, 71.0° (Epoch: 24 February)

Event Time Altitude Azimuth Distance (km) Brightness Sun altitude
Rises 18:57:56 0° 334° (NNW) 3,391 6.2 -26.7°
Reaches altitude 10° 19:00:23 10° 336° (NNW) 2,454 5.4 -27.1°
Enters shadow 19:05:10 63° 358° (N) 929 2.8 -27.9°
